Погода в Сент-Джордже

Бермудские Острова     32°20′05″N   64°41′31″W
темп.,
°C
ветер,
м/с
пор.,
м/с
влажн.,
%
обл.,
%
осадки,
мм/ч
давл.,
гПа
погр.,
м
5 августа, чт
чт500:00+27вюв67803 1.8 1026686
03:00+27вюв77784 4.1 1026832
06:00+27вюв677810 0.1 1025783
09:00+27вюв77725 0.3 1026990
12:00+27вюв78735 0.0 1026999
15:00+28вюв77726 0.0 1026929
18:00+28вюв56752 0.0 1025874
21:00+27вюв55780 0.2 1026729
6 августа, пт
пт600:00+27вюв67805 1.1 1026648
03:00+27вюв67770 1.3 1025856
06:00+27вюв67786 1.2 1024810
09:00+27вюв66731 1.3 1025966
12:00+27вюв667519 0.0 1025856
15:00+28вюв55724 0.6 1024947
18:00+28вюв447299 0.0 1024898
21:00+27в34735 0.0 1024813
7 августа, сб
сб700:00+27вюв447594 0.1 1024815
03:00+27вюв44755 0.2 1023813
06:00+27вюв437481 0.0 1022790
09:00+27вюв337447 0.1 1023732
12:00+27юв33736 0.2 1023763
15:00+27юв227017 0.3 1022872
18:00+27юв226911 0.1 1022765
21:00+27вюв32725 0.2 1022690
8 августа, вс
вс800:00+27вюв33735 0.1 1022693
03:00+27вюв33726 0.2 1021779
06:00+26юв33725 0.0 1021749
09:00+26юв3370100 0.0 1022779
12:00+27юв2268100 0.0 1023723
15:00+27ююв226791 0.0 1022772
18:00+27ююв2266100 0.0 1022813
21:00+27юв2268100 0.0 1023744
9 августа, пн
пн900:00+27юв3272100 0.0 1023687
03:00+26юв337491 0.0 1022715
06:00+26ююв227348 0.0 1022702
09:00+26ююв227310 0.0 1023698
12:00+26ююв3374100 0.0 1023684
15:00+27ююз227250 0.1 1023739
18:00+27юз116810 0.1 1023808
21:00+27ююв11677 0.2 1024707